Find Starlink 5879

NORAD ID: 57153 Int'l Des: 2023-090 Owner: SPXS Country: US Constellation: starlink operational
LEOCIRCULAR

Live Position

Loading 3D Globe...

About Starlink 5879

Description loading...

Upcoming Passes

Passes for default location (London). Set your location on the main map for personalized predictions.

Altitude History

Loading altitude history...

Two-Line Element Set

1 57153U 23090BE 26104.26333836 .00000930 00000-0 45382-4 0 9990
2 57153 43.0038 51.1481 0001300 272.9454 87.1249 15.25907789155610
Epoch: Apr 14, 2026 • Age: 14 hours

Current Status

Altitude 500.3 km
Velocity 7.62 km/s
Sub-Earth Point -42.75°S, 176.84°W
Launch Date Jun 23, 2023
Age 2.8 years
Type internet

Technical Details

Classification Payload
Mass 305.00 kg
Dry Mass 290.00 kg
Total Mass 305.00 kg
Length 0.20 m
Diameter 2.80 m
Span 9.00 m
Shape Box + pan
Manufacturer SPXS
Bus Type Starlink
Phase Status In Orbit
Owner/State SPXS/US

Most Searched